Regional Weather Roundup
Issued by NWS Cleveland, OH

Home | Current Version | Previous Version | Text Only | Print | Product List | Glossary Off
Versions: 1 2 3 4 5 6 7 8 9 10 11 12 13 14 15 16 17 18 19 20 21 22 23 24 25 26 27 28 29 30 31 32 33 34 35 36 37 38 39 40 41 42 43 44 45 46 47 48 49 50

000
ASUS41 KCLE 270600
RWRCLE
OHIO REGIONAL WEATHER ROUNDUP
NATIONAL WEATHER SERVICE WILMINGTON, OH
200 AM EDT WED JUL 27 2016

NOTE: "FAIR" INDICATES FEW OR NO CLOUDS BELOW 12,000 FEET WITH NO
SIGNIFICANT WEATHER AND/OR OBSTRUCTIONS TO VISIBILITY.

OHZ001>008-015>018-024>027-034-035-043-044-270700-
   NORTHWEST OHIO

CITY           SKY/WX    TMP DP  RH WIND       PRES   REMARKS
DEFIANCE       FAIR      69  64  84 CALM      30.01F
FINDLAY        FAIR      70  59  68 CALM      30.00F
TOLEDO EXPRESS FAIR      65  65 100 CALM      30.00F
TOLEDO EXEC    FAIR      70  62  76 CALM      30.01F
LIMA           FAIR      68  64  87 SE3       30.02F
$$

OHZ009>014-019>023-028>033-038-089-270700-
   NORTHEAST OHIO

CITY           SKY/WX    TMP DP  RH WIND       PRES   REMARKS
CLE-HOPKINS    FAIR      68  57  68 CALM      30.03S
CLE-LAKEFRONT  FAIR      74  56  53 S3        30.00S
CUY CO. ARPT   NOT AVBL
LORAIN-ELYRIA  FAIR      63  58  83 CALM      30.02F
ASHTABULA      FAIR      59  58  96 CALM      30.03S
AKRON-CANTON   MOCLDY    69  58  67 CALM      30.04S
WOOSTER        NOT AVBL
MANSFIELD      FAIR      71  59  65 SE3       30.04F
YOUNGSTOWN     MOCLDY    62  59  90 CALM      30.03S
$$

OHZ042-051>053-060>062-070>072-077>081-270700-
  SOUTHWEST OHIO

CITY           SKY/WX    TMP DP  RH WIND       PRES   REMARKS
CINC-COVINGTON MOCLDY    75  74  96 CALM      30.01F
CINC-LUNKEN    FAIR      74  74 100 CALM      30.00F
HAMILTON       MOCLDY    71  69  93 CALM      30.01F
DAYTON         NOT AVBL
WRIGHT-PAT AFB FAIR      74  71  91 N2        30.01F
DAYTON GENERAL FAIR      74  68  81 CALM      30.01F
WILMINGTON     MOCLDY    73  72  96 CALM      30.02F FOG
$$

OHZ036-037-039>041-045>050-054>059-063>069-073>076-082>088-270700-
  CENTRAL AND SOUTHEAST OHIO

CITY           SKY/WX    TMP DP  RH WIND       PRES   REMARKS
COLUMBUS       MOCLDY    76  65  68 E3        30.01S
OSU AIRPORT    CLOUDY    75  63  66 E5        30.01S
BOLTON FIELD   NOT AVBL
RICKENBACK AFB NOT AVBL
NEWARK         FAIR      75  62  64 CALM      30.01F
MARION         MOCLDY    71  62  73 CALM      30.02F
LANCASTER      CLOUDY    73  72  96 CALM      30.03R
ZANESVILLE     CLOUDY    76  71  85 E3        30.02R
NEW PHILLY     CLOUDY    75  61  61 CALM      30.03S
$$




USA.gov is the U.S. government's official web portal to all federal, state and local government web resources and services.